CW3340 Weather Reports


time (UTC)temp
F
wind
direction
speed
knots
gust
knots
rain 1hr
in
rain 24hr
in
rain mn
in
humidity
%
barometer
mb
20260901141105 74 206 0.0 2.6 0.00 0.27 0.27 94 1015.9
20260901140605 74 285 0.9 2.6 0.00 0.27 0.27 94 1015.9
20260901140106 74 285 0.9 2.6 0.00 0.27 0.27 94 1015.9
20260901135605 74 262 0.9 2.6 0.00 0.27 0.27 94 1016.0
20260901135105 74 239 0.0 1.7 0.00 0.27 0.27 94 1015.8
20260901134605 74 238 0.9 1.7 0.00 0.27 0.27 94 1015.9
20260901134105 74 216 0.9 1.7 0.00 0.27 0.27 94 1015.9
20260901133605 74 218 0.9 2.6 0.00 0.27 0.27 94 1015.9
20260901133105 74 218 0.0 2.6 0.00 0.27 0.27 94 1015.8
20260901132605 74 219 0.9 1.7 0.00 0.27 0.27 94 1015.9
20260901132105 74 218 0.9 1.7 0.00 0.27 0.27 94 1015.9
20260901131605 74 208 0.0 2.6 0.00 0.27 0.27 94 1015.7
20260901131105 74 208 0.9 2.6 0.00 0.27 0.27 94 1015.8
20260901130605 74 177 1.7 2.6 0.00 0.27 0.27 94 1015.7
20260901130107 74 155 0.9 2.6 0.00 0.27 0.27 94 1015.7
20260901125605 74 178 1.7 2.6 0.00 0.27 0.27 94 1015.6
20260901125105 74 204 0.9 2.6 0.00 0.27 0.27 94 1015.6
20260901124605 74 203 0.9 2.6 0.00 0.27 0.27 94 1015.8
20260901124105 73 230 0.9 2.6 0.00 0.27 0.27 94 1015.9
20260901123605 73 176 0.9 2.6 0.00 0.27 0.27 94 1015.7
20260901123105 73 168 0.0 2.6 0.00 0.27 0.27 94 1015.8
20260901122605 73 208 0.9 2.6 0.00 0.27 0.27 94 1015.9
20260901122106 73 240 1.7 2.6 0.00 0.27 0.27 94 1016.0
20260901121605 73 195 0.0 2.6 0.00 0.27 0.27 94 1015.9
20260901121105 73 187 1.7 2.6 0.00 0.27 0.27 94 1016.2
20260901120605 72 109 0.0 1.7 0.00 0.27 0.27 94 1016.1
20260901120106 72 109 0.0 1.7 0.00 0.27 0.27 94 1016.1
20260901115605 72 109 0.9 1.7 0.00 0.27 0.27 94 1016.0
20260901115105 72 126 0.9 1.7 0.00 0.27 0.27 94 1016.0
20260901114605 72 148 0.9 1.7 0.00 0.27 0.27 94 1016.1
20260901114106 72 148 0.9 2.6 0.00 0.27 0.27 94 1016.2
20260901113605 72 148 0.9 2.6 0.00 0.27 0.27 94 1016.2
20260901113105 72 148 0.0 2.6 0.00 0.27 0.27 94 1016.2
20260901112605 72 146 1.7 2.6 0.00 0.27 0.27 94 1016.1
20260901112105 72 100 0.9 2.6 0.00 0.27 0.27 94 1016.2
20260901111605 71 96 0.9 2.6 0.00 0.27 0.27 94 1016.3
20260901111105 71 94 0.9 2.6 0.00 0.27 0.27 93 1016.4
20260901110605 71 94 0.9 1.7 0.00 0.27 0.27 93 1016.4
20260901110106 71 116 0.0 1.7 0.00 0.27 0.27 93 1016.3
20260901105605 71 116 0.9 1.7 0.00 0.27 0.27 93 1016.2
20260901105105 71 118 0.0 2.6 0.00 0.27 0.27 93 1016.2
20260901104605 71 118 0.9 2.6 0.00 0.27 0.27 93 1016.1
20260901104105 71 125 0.9 2.6 0.00 0.27 0.27 93 1016.0
20260901103605 71 135 1.7 2.6 0.00 0.27 0.27 93 1015.9
20260901103105 71 137 0.9 2.6 0.00 0.27 0.27 93 1015.9
20260901102605 71 137 0.9 2.6 0.00 0.27 0.27 93 1016.0
20260901102105 71 122 1.7 2.6 0.00 0.27 0.27 93 1015.9
20260901101605 71 115 0.9 1.7 0.00 0.27 0.27 93 1016.1
20260901101105 71 115 0.0 1.7 0.00 0.27 0.27 93 1016.1
20260901100605 71 116 0.9 2.6 0.00 0.27 0.27 93 1016.0
20260901100107 71 116 0.9 2.6 0.00 0.27 0.27 93 1015.9
20260901095605 71 116 0.9 2.6 0.00 0.27 0.27 93 1015.8
20260901095105 71 116 1.7 2.6 0.00 0.27 0.27 92 1015.8
20260901094605 71 120 0.9 2.6 0.01 0.27 0.27 92 1015.9
20260901094105 71 168 1.7 2.6 0.01 0.27 0.27 92 1015.9
20260901093605 71 102 0.0 2.6 0.02 0.27 0.27 92 1015.9
20260901093105 71 102 1.7 2.6 0.02 0.27 0.27 92 1016.0
20260901092605 71 106 0.9 1.7 0.02 0.27 0.27 92 1016.1
20260901092106 71 108 0.9 1.7 0.03 0.27 0.27 92 1016.1
20260901091605 71 108 0.9 2.6 0.03 0.27 0.27 92 1016.2
20260901091105 71 106 0.9 2.6 0.03 0.27 0.27 92 1016.3
20260901090605 71 133 0.0 2.6 0.03 0.27 0.27 92 1016.2
20260901090106 71 139 1.7 2.6 0.03 0.27 0.27 92 1016.2
20260901085605 71 94 1.7 2.6 0.03 0.27 0.27 92 1016.2
20260901085105 71 121 1.7 2.6 0.03 0.27 0.27 92 1016.2
20260901084605 71 90 1.7 2.6 0.02 0.26 0.26 92 1016.2
20260901084105 71 101 1.7 2.6 0.02 0.26 0.26 92 1016.3
20260901083605 71 56 1.7 2.6 0.01 0.25 0.25 92 1016.4
20260901083105 71 66 1.7 2.6 0.01 0.25 0.25 91 1016.5
20260901082605 71 33 0.9 2.6 0.03 0.25 0.25 91 1016.5
20260901082105 71 118 1.7 2.6 0.05 0.24 0.24 91 1016.4
20260901081605 71 331 0.9 2.6 0.12 0.24 0.24 91 1016.5
20260901081105 71 356 2.6 2.6 0.12 0.24 0.24 91 1016.5
20260901080605 72 62 0.0 2.6 0.12 0.24 0.24 91 1016.4
20260901080106 72 62 1.7 2.6 0.12 0.24 0.24 91 1016.3
20260901075605 72 81 0.9 2.6 0.12 0.24 0.24 91 1016.3
20260901075105 72 129 0.9 1.7 0.12 0.24 0.24 91 1016.4
20260901074605 72 165 0.9 1.7 0.12 0.24 0.24 91 1016.5
20260901074105 72 165 0.0 1.7 0.12 0.24 0.24 90 1016.5
20260901073605 72 146 0.0 1.7 0.12 0.24 0.24 90 1016.4
20260901073105 72 146 0.9 1.7 0.12 0.24 0.24 90 1016.5
20260901072605 72 146 0.0 2.6 0.10 0.22 0.22 90 1016.5
20260901072105 71 147 0.9 2.6 0.07 0.19 0.19 90 1016.5
20260901071605 71 146 1.7 2.6 0.00 0.12 0.12 90 1016.4
20260901071105 71 146 0.9 1.7 0.00 0.12 0.12 90 1016.5
20260901070605 72 146 0.9 2.6 0.01 0.12 0.12 89 1016.5
20260901070107 72 146 1.7 2.6 0.01 0.12 0.12 89 1016.5
20260901065605 72 143 1.7 2.6 0.02 0.12 0.12 89 1016.6
20260901065105 72 137 1.7 2.6 0.04 0.12 0.12 89 1016.7
20260901064605 72 164 1.7 2.6 0.07 0.12 0.12 89 1016.8
20260901064105 72 175 0.9 2.6 0.09 0.12 0.12 89 1016.9
20260901063605 72 175 0.9 2.6 0.10 0.12 0.12 89 1016.9
20260901063105 72 187 1.7 2.6 0.11 0.12 0.12 88 1016.9
20260901062605 72 173 0.9 1.7 0.12 0.12 0.12 88 1017.1
20260901062105 72 173 0.0 2.6 0.12 0.12 0.12 88 1017.1
20260901061605 72 173 0.9 2.6 0.12 0.12 0.12 88 1017.1
20260901061105 72 173 1.7 2.6 0.12 0.12 0.12 88 1017.1
20260901060605 72 181 0.9 1.7 0.11 0.11 0.11 87 1017.2
20260901060106 72 181 0.0 0.9 0.11 0.11 0.11 87 1017.3
20260901055605 72 181 0.9 0.9 0.10 0.10 0.10 87 1017.3
20260901055105 72 181 0.0 0.9 0.08 0.08 0.08 87 1017.3
20260901054605 72 181 0.0 0.9 0.05 0.05 0.05 87 1017.3
20260901054105 72 181 0.0 1.7 0.03 0.03 0.03 87 1017.3
20260901053605 72 181 0.0 2.6 0.02 0.02 0.02 86 1017.4
20260901053105 72 183 0.9 2.6 0.01 0.01 0.01 86 1017.4
20260901052605 72 185 0.9 4.3 0.00 0.00 0.00 86 1017.4
20260901052105 72 188 1.7 4.3 0.00 0.00 0.00 86 1017.5
20260901051605 72 175 1.7 5.2 0.00 0.00 0.00 85 1017.5
20260901051105 72 200 1.7 5.2 0.00 0.00 0.00 85 1017.5
20260901050605 72 219 0.9 4.3 0.00 0.00 0.00 85 1017.6
20260901050106 72 174 1.7 4.3 0.00 0.00 0.00 85 1017.5
20260901045605 72 195 1.7 4.3 0.00 0.00 0.00 85 1017.5
20260901045105 72 196 1.7 4.3 0.00 0.00 0.00 85 1017.6
20260901044605 72 183 0.9 5.2 0.00 0.00 0.00 85 1017.6
20260901044105 72 215 1.7 5.2 0.00 0.00 0.00 85 1017.7
20260901043605 72 174 0.9 5.2 0.00 0.00 0.00 85 1017.7
20260901043105 72 206 0.9 5.2 0.00 0.00 0.00 85 1017.7
20260901042605 72 185 2.6 7.8 0.00 0.00 0.00 84 1017.7
20260901042105 72 192 4.3 7.8 0.00 0.00 0.00 85 1017.7
20260901041605 72 181 4.3 7.0 0.00 0.00 0.00 84 1017.7
20260901041105 72 146 2.6 6.1 0.00 0.00 0.00 84 1017.7
20260901040605 72 186 1.7 5.2 0.00 0.00 0.00 84 1017.7
20260901040106 72 162 2.6 5.2 0.00 0.00 0.00 84 1017.8
20260901035605 72 193 1.7 5.2 0.00 0.00 0.00 84 1017.7
20260901035105 72 151 1.7 5.2 0.00 0.00 0.00 84 1017.8
20260901034605 72 186 2.6 5.2 0.00 0.00 0.00 84 1017.8
20260901034105 72 162 1.7 5.2 0.00 0.00 0.00 84 1017.8
20260901033605 72 173 2.6 6.1 0.00 0.00 0.00 84 1017.8
20260901033105 72 187 2.6 6.1 0.00 0.00 0.00 84 1017.9
20260901032605 72 181 2.6 5.2 0.00 0.00 0.00 84 1017.9
20260901032106 72 155 2.6 5.2 0.00 0.00 0.00 84 1017.9
20260901031605 72 175 1.7 4.3 0.00 0.00 0.00 84 1017.9
20260901031105 72 174 1.7 4.3 0.00 0.00 0.00 84 1018.1
20260901030605 72 199 1.7 2.6 0.00 0.00 0.00 84 1018.2
20260901030107 72 143 1.7 4.3 0.00 0.00 0.00 84 1018.2
20260901025605 72 172 1.7 4.3 0.00 0.00 0.00 84 1018.2
20260901025105 72 171 0.9 4.3 0.00 0.00 0.00 84 1018.4
20260901024605 72 188 2.6 4.3 0.00 0.00 0.00 84 1018.5
20260901024105 72 173 0.9 2.6 0.00 0.00 0.00 84 1018.5
20260901023605 72 150 0.0 2.6 0.00 0.00 0.00 84 1018.4
20260901023105 72 167 1.7 4.3 0.00 0.00 0.00 84 1018.4
20260901022605 72 144 1.7 4.3 0.00 0.00 0.00 84 1018.4
20260901022105 72 172 1.7 4.3 0.00 0.00 0.00 84 1018.4
20260901021605 72 148 2.6 4.3 0.00 0.01 0.00 84 1018.4
20260901021105 72 144 1.7 6.1 0.00 0.01 0.00 84 1018.4
20260901020605 72 169 1.7 6.1 0.00 0.01 0.00 84 1018.5
20260901020107 72 190 1.7 4.3 0.00 0.01 0.00 84 1018.5
20260901015605 72 164 1.7 5.2 0.00 0.01 0.00 84 1018.5
20260901015105 72 184 1.7 6.1 0.00 0.01 0.00 84 1018.5
20260901014605 72 164 3.5 6.1 0.00 0.01 0.00 84 1018.6
20260901014105 72 156 1.7 2.6 0.00 0.01 0.00 84 1018.6
20260901013605 72 164 1.7 2.6 0.00 0.01 0.00 84 1018.7
20260901013105 72 160 1.7 2.6 0.00 0.01 0.00 84 1018.8
20260901012605 72 149 1.7 6.1 0.00 0.01 0.00 84 1018.7
20260901012105 73 169 2.6 6.1 0.00 0.01 0.00 84 1018.7
20260901011605 73 163 1.7 5.2 0.00 0.01 0.00 84 1018.6
20260901011105 73 128 2.6 6.1 0.00 0.01 0.00 84 1018.6
20260901010605 73 143 2.6 6.1 0.00 0.01 0.00 84 1018.5
20260901010107 73 131 2.6 2.6 0.00 0.01 0.00 84 1018.5
20260901005605 73 137 1.7 5.2 0.00 0.01 0.00 84 1018.5
20260901005105 73 147 2.6 5.2 0.00 0.01 0.00 84 1018.5
20260901004605 73 172 2.6 6.1 0.00 0.01 0.00 83 1018.4
20260901004106 73 123 1.7 6.1 0.00 0.01 0.00 83 1018.4
20260901003605 73 129 2.6 6.1 0.00 0.01 0.00 83 1018.4
20260901003105 73 150 2.6 6.1 0.00 0.01 0.00 83 1018.5
20260901002605 73 158 4.3 6.1 0.00 0.01 0.00 82 1018.4
20260901002105 73 151 1.7 6.1 0.00 0.01 0.00 82 1018.5
20260901001605 73 169 2.6 6.1 0.00 0.01 0.00 82 1018.4
20260901001105 73 138 1.7 4.3 0.00 0.01 0.00 82 1018.4
20260901000605 73 117 1.7 5.2 0.00 0.01 0.00 82 1018.3
20260901000106 73 147 2.6 5.2 0.00 0.01 0.00 82 1018.4
20260831235605 73 136 3.5 6.1 0.00 0.01 0.00 81 1018.4
20260831235105 73 136 2.6 7.0 0.00 0.01 0.00 81 1018.4
20260831234605 73 121 1.7 7.0 0.00 0.01 0.00 81 1018.4
20260831234105 73 173 2.6 5.2 0.00 0.01 0.00 80 1018.4
20260831233605 73 130 1.7 5.2 0.00 0.01 0.00 80 1018.5
20260831233105 73 145 2.6 5.2 0.00 0.01 0.00 79 1018.6
20260831232605 73 173 1.7 5.2 0.00 0.01 0.00 79 1018.6
20260831232105 73 177 2.6 6.1 0.00 0.01 0.00 79 1018.6
20260831231605 74 142 4.3 6.1 0.00 0.01 0.00 79 1018.6
20260831231105 74 163 1.7 4.3 0.00 0.01 0.00 79 1018.6
20260831230605 74 156 1.7 4.3 0.00 0.01 0.00 78 1018.6
20260831230107 74 177 2.6 5.2 0.00 0.01 0.00 78 1018.6
20260831225605 74 150 2.6 5.2 0.00 0.01 0.00 78 1018.5
20260831225105 74 142 1.7 5.2 0.00 0.01 0.00 78 1018.6
20260831224605 74 170 1.7 5.2 0.00 0.01 0.00 78 1018.6
20260831224105 74 181 1.7 2.6 0.00 0.01 0.00 77 1018.5
20260831223605 74 147 0.9 4.3 0.00 0.01 0.00 77 1018.5
20260831223105 74 159 1.7 4.3 0.00 0.01 0.00 77 1018.5
20260831222605 74 173 2.6 5.2 0.00 0.01 0.00 77 1018.6
20260831222105 74 157 1.7 5.2 0.00 0.01 0.00 77 1018.6
20260831221605 75 116 1.7 5.2 0.00 0.01 0.00 77 1018.7
20260831221105 75 168 2.6 5.2 0.00 0.01 0.00 77 1018.7
20260831220605 75 180 2.6 5.2 0.00 0.01 0.00 77 1018.7
20260831220106 75 164 1.7 7.0 0.00 0.01 0.00 77 1018.8
20260831215605 75 169 0.9 7.0 0.00 0.01 0.00 77 1018.7
20260831215105 75 149 4.3 7.0 0.00 0.01 0.00 77 1018.7
20260831214605 75 142 2.6 7.0 0.00 0.01 0.00 77 1018.8
20260831214105 75 171 2.6 7.0 0.00 0.01 0.00 77 1018.9
20260831213605 75 185 3.5 7.0 0.00 0.01 0.00 77 1019.0
20260831213105 75 153 3.5 7.0 0.00 0.01 0.00 76 1019.1
20260831212605 75 159 2.6 7.0 0.00 0.01 0.00 76 1019.1
20260831212105 75 180 3.5 7.0 0.00 0.01 0.00 76 1019.1
20260831211605 75 178 1.7 7.0 0.00 0.01 0.00 77 1019.0
20260831211105 75 148 4.3 7.0 0.00 0.01 0.00 76 1018.9
20260831210605 75 183 2.6 7.8 0.00 0.01 0.00 76 1018.9
20260831210106 75 172 4.3 10.4 0.00 0.01 0.00 75 1018.9
20260831205605 75 162 3.5 10.4 0.00 0.01 0.00 75 1018.9
20260831205105 75 193 5.2 10.4 0.00 0.01 0.00 75 1018.9
20260831204606 75 165 5.2 10.4 0.00 0.01 0.00 75 1019.0
20260831204105 75 158 2.6 7.8 0.00 0.01 0.00 74 1019.0
20260831203605 75 168 4.3 8.7 0.00 0.01 0.00 74 1019.0
20260831203105 75 156 4.3 8.7 0.00 0.01 0.00 73 1019.1
20260831202605 76 171 4.3 10.4 0.00 0.01 0.00 73 1019.2
20260831202105 76 174 6.1 10.4 0.00 0.01 0.00 72 1019.3
20260831201605 76 173 1.7 8.7 0.00 0.01 0.00 72 1019.3
20260831201105 77 156 6.1 8.7 0.00 0.01 0.00 71 1019.3
20260831200605 77 181 4.3 7.8 0.00 0.01 0.00 70 1019.3
20260831200106 77 189 2.6 7.8 0.00 0.01 0.00 69 1019.3
20260831195605 77 193 2.6 8.7 0.00 0.01 0.00 69 1019.4
20260831195105 78 153 3.5 12.2 0.00 0.01 0.00 68 1019.3
20260831194605 78 175 2.6 12.2 0.00 0.01 0.00 67 1019.4
20260831194105 78 193 4.3 10.4 0.00 0.01 0.00 67 1019.3
20260831193605 78 138 6.1 10.4 0.00 0.01 0.00 65 1019.5
20260831193105 78 147 5.2 10.4 0.00 0.01 0.00 65 1019.5
20260831192605 78 164 6.1 11.3 0.00 0.01 0.00 65 1019.4
20260831192106 79 142 6.1 11.3 0.00 0.01 0.00 64 1019.5
20260831191605 79 187 5.2 12.2 0.00 0.01 0.00 64 1019.6
20260831191105 79 165 5.2 12.2 0.00 0.01 0.00 63 1019.8
20260831190605 80 160 7.8 11.3 0.00 0.01 0.00 62 1019.8
20260831190108 80 150 6.1 11.3 0.00 0.01 0.00 62 1019.8
20260831185605 81 149 7.0 11.3 0.00 0.01 0.00 62 1019.8
20260831185105 81 142 5.2 13.0 0.00 0.01 0.00 62 1019.7
20260831184605 81 170 5.2 13.0 0.00 0.01 0.00 61 1019.6
20260831184105 81 170 7.8 11.3 0.00 0.01 0.00 59 1019.7
20260831183605 80 150 5.2 10.4 0.00 0.01 0.00 60 1019.7
20260831183105 80 149 4.3 10.4 0.00 0.01 0.00 59 1019.7
20260831182605 81 167 4.3 12.2 0.00 0.01 0.00 59 1019.8
20260831182105 81 128 7.8 12.2 0.00 0.01 0.00 60 1019.8
20260831181605 81 158 5.2 10.4 0.00 0.01 0.00 58 1019.9
20260831181105 81 149 6.1 10.4 0.00 0.01 0.00 58 1019.9
20260831180605 81 148 5.2 10.4 0.00 0.01 0.00 58 1020.1
20260831180107 81 140 4.3 10.4 0.00 0.01 0.00 58 1020.0
20260831175605 81 168 6.1 10.4 0.00 0.01 0.00 58 1019.9
20260831175105 81 161 5.2 10.4 0.00 0.01 0.00 59 1019.9
20260831174605 81 137 7.0 10.4 0.00 0.01 0.00 59 1019.9
20260831174105 81 145 6.1 11.3 0.00 0.01 0.00 59 1019.9
20260831173605 81 177 7.8 11.3 0.00 0.01 0.00 59 1020.0
20260831173105 82 137 4.3 10.4 0.00 0.01 0.00 60 1020.0
20260831172605 82 164 7.8 10.4 0.00 0.01 0.00 59 1020.0
20260831172106 81 144 3.5 10.4 0.00 0.01 0.00 60 1020.1
20260831171605 81 167 3.5 10.4 0.00 0.01 0.00 62 1020.1
20260831171105 81 156 4.3 10.4 0.00 0.01 0.00 62 1020.1
20260831170605 81 166 5.2 8.7 0.00 0.01 0.00 62 1020.0
20260831170107 81 167 5.2 8.7 0.00 0.01 0.00 62 1020.1
20260831165605 81 127 5.2 10.4 0.00 0.01 0.00 61 1020.1
20260831165105 81 168 6.1 10.4 0.00 0.01 0.00 61 1020.0
20260831164605 81 101 2.6 8.7 0.00 0.01 0.00 61 1020.0
20260831164105 81 120 4.3 7.8 0.00 0.01 0.00 62 1020.0
20260831163605 81 155 2.6 7.8 0.00 0.01 0.00 61 1020.1
20260831163105 81 159 3.5 7.8 0.00 0.01 0.00 61 1020.2
20260831162605 81 86 2.6 7.0 0.00 0.01 0.00 60 1020.2
20260831162105 80 84 2.6 8.7 0.00 0.01 0.00 61 1020.1
20260831161605 80 138 4.3 8.7 0.00 0.01 0.00 62 1020.1
20260831161105 80 66 4.3 7.8 0.00 0.01 0.00 64 1020.1
20260831160605 79 50 5.2 7.8 0.00 0.01 0.00 64 1020.2
20260831160107 79 76 3.5 7.8 0.00 0.01 0.00 65 1020.2
20260831155605 79 182 1.7 7.0 0.00 0.01 0.00 65 1020.2
20260831155105 79 154 2.6 7.0 0.00 0.01 0.00 66 1020.1
20260831154605 78 110 4.3 7.0 0.00 0.01 0.00 67 1020.1
20260831154105 78 94 2.6 5.2 0.00 0.01 0.00 68 1020.1
20260831153605 77 44 2.6 6.1 0.00 0.01 0.00 68 1020.1
20260831153105 77 191 3.5 6.1 0.00 0.01 0.00 69 1020.3
20260831152605 77 131 1.7 5.2 0.00 0.01 0.00 69 1020.3
20260831152105 76 177 1.7 5.2 0.00 0.01 0.00 71 1020.4
20260831151605 76 58 1.7 4.3 0.00 0.01 0.00 72 1020.4
20260831151105 75 77 1.7 5.2 0.00 0.01 0.00 73 1020.3
20260831150605 75 96 1.7 5.2 0.00 0.01 0.00 74 1020.4
20260831150107 75 107 1.7 6.1 0.00 0.01 0.00 74 1020.4
20260831145605 74 71 1.7 6.1 0.00 0.01 0.00 74 1020.5
20260831145105 74 23 3.5 5.2 0.00 0.01 0.00 74 1020.6
20260831144605 74 7 2.6 5.2 0.00 0.01 0.00 75 1020.6
20260831144107 74 31 2.6 5.2 0.00 0.01 0.00 75 1020.6
20260831143605 74 7 2.6 6.1 0.00 0.01 0.00 76 1020.5
20260831143105 73 30 2.6 6.1 0.00 0.01 0.00 76 1020.4
20260831142605 73 355 2.6 2.6 0.00 0.01 0.00 76 1020.4
20260831142105 73 28 2.6 6.1 0.00 0.01 0.00 76 1020.3
20260831141605 73 94 0.9 6.1 0.00 0.01 0.00 76 1020.3